EW2310 Weather Reports


time (UTC)temp
F
wind
direction
speed
knots
gust
knots
rain 1hr
in
rain 24hr
in
rain mn
in
humidity
%
barometer
mb
20260906080040 85 281 0.0 1.7 0.00 0.00 0.00 66 1018.2
20260906075540 85 284 0.0 1.7 0.00 0.00 0.00 67 1018.1
20260906075040 84 355 1.7 2.6 0.00 0.00 0.00 68 1018.1
20260906074543 83 302 0.0 1.7 0.00 0.00 0.00 69 1018.0
20260906074040 83 304 0.0 1.7 0.00 0.00 0.00 69 1018.0
20260906073540 83 301 0.0 3.5 0.00 0.00 0.00 69 1018.0
20260906073040 84 331 2.6 3.5 0.00 0.00 0.00 69 1018.0
20260906072540 83 113 0.0 0.9 0.00 0.00 0.00 71 1017.9
20260906072040 82 113 0.9 2.6 0.00 0.00 0.00 72 1017.9
20260906071540 82 14 0.0 1.7 0.00 0.00 0.00 73 1017.8
20260906071040 81 15 0.9 2.6 0.00 0.00 0.00 73 1017.9
20260906070540 81 5 0.9 0.9 0.00 0.00 0.00 74 1017.8
20260906070040 81 5 0.0 2.6 0.00 0.00 0.00 75 1017.9
20260906065540 80 325 1.7 2.6 0.00 0.00 0.00 75 1017.9
20260906065040 80 325 0.0 3.5 0.00 0.00 0.00 75 1017.8
20260906064540 80 333 2.6 3.5 0.00 0.00 0.00 75 1017.8
20260906064040 80 338 1.7 2.6 0.00 0.00 0.00 74 1017.7
20260906063540 80 339 0.9 2.6 0.00 0.00 0.00 73 1017.7
20260906063040 81 338 0.9 2.6 0.00 0.00 0.00 73 1017.7
20260906062540 80 337 0.0 0.0 0.00 0.00 0.00 73 1017.7
20260906062040 80 337 0.0 0.0 0.00 0.00 0.00 73 1017.7
20260906061540 79 337 0.0 0.0 0.00 0.00 0.00 73 1017.7
20260906061040 79 337 0.0 0.0 0.00 0.00 0.00 74 1017.7
20260906060540 79 337 0.0 0.0 0.00 0.00 0.00 75 1017.6
20260906060043 78 337 0.0 0.0 0.00 0.00 0.00 76 1017.6
20260906055540 77 337 0.0 0.0 0.00 0.00 0.00 77 1017.6
20260906055040 77 337 0.0 0.0 0.00 0.00 0.00 77 1017.6
20260906054540 76 337 0.0 0.0 0.00 0.00 0.00 78 1017.5
20260906054040 76 337 0.0 0.0 0.00 0.00 0.00 78 1017.5
20260906053540 76 337 0.0 0.0 0.00 0.00 0.00 79 1017.4
20260906053040 75 337 0.0 0.0 0.00 0.00 0.00 80 1017.4
20260906052543 75 337 0.0 0.0 0.00 0.00 0.00 80 1017.4
20260906052040 75 337 0.0 0.0 0.00 0.00 0.00 81 1017.4
20260906051540 74 337 0.0 0.0 0.00 0.00 0.00 81 1017.3
20260906051043 74 337 0.0 0.9 0.00 0.00 0.00 81 1017.4
20260906050543 74 337 0.0 0.9 0.00 0.00 0.00 81 1017.3
20260906050040 74 337 0.0 1.7 0.00 0.00 0.00 82 1017.2
20260906045540 74 343 0.0 0.9 0.00 0.00 0.00 81 1017.2
20260906045043 74 350 0.0 0.9 0.00 0.00 0.00 81 1017.2
20260906044540 74 350 0.0 0.9 0.00 0.00 0.00 81 1017.2
20260906044040 74 350 0.0 0.9 0.00 0.00 0.00 81 1017.2
20260906043540 75 355 0.9 0.9 0.00 0.00 0.00 81 1017.2
20260906043040 75 355 0.0 0.0 0.00 0.00 0.00 80 1017.2
20260906042540 75 355 0.0 0.9 0.00 0.00 0.00 80 1017.2
20260906042040 76 355 0.0 0.9 0.00 0.00 0.00 81 1017.2
20260906041540 76 355 0.0 0.0 0.00 0.00 0.00 81 1017.2
20260906041040 76 355 0.0 0.9 0.00 0.00 0.00 81 1017.1
20260906040543 76 355 0.0 0.9 0.00 0.00 0.00 81 1017.1
20260906040040 76 355 0.0 0.9 0.00 0.00 0.00 81 1017.0
20260906035541 76 355 0.0 0.9 0.00 0.00 0.00 81 1017.1
20260906035042 76 355 0.0 0.9 0.00 0.00 0.00 81 1017.0
20260906034540 76 355 0.0 0.0 0.00 0.00 0.00 81 1017.0
20260906034043 76 355 0.0 0.0 0.00 0.00 0.00 81 1017.0
20260906033540 76 355 0.0 0.9 0.00 0.00 0.00 81 1017.0
20260906033040 76 355 0.0 0.0 0.00 0.00 0.00 81 1016.9
20260906032540 76 355 0.0 0.0 0.00 0.00 0.00 81 1017.0
20260906032043 76 355 0.0 0.0 0.00 0.00 0.00 81 1017.0
20260906031540 76 355 0.0 0.0 0.00 0.00 0.00 80 1016.9
20260906031040 76 355 0.0 0.0 0.00 0.00 0.00 80 1017.0
20260906030539 77 355 0.0 0.0 0.00 0.00 0.00 80 1017.0
20260906030040 77 355 0.0 0.0 0.00 0.00 0.00 80 1016.9
20260906025540 77 355 0.0 0.0 0.00 0.00 0.00 80 1016.9
20260906025040 77 355 0.0 0.0 0.00 0.00 0.00 80 1017.0
20260906024540 77 355 0.0 0.9 0.00 0.00 0.00 80 1017.0
20260906024040 77 355 0.0 0.0 0.00 0.00 0.00 80 1017.0
20260906023540 77 355 0.0 0.9 0.00 0.00 0.00 80 1017.0
20260906023040 77 355 0.0 0.9 0.00 0.00 0.00 80 1017.0
20260906022539 77 355 0.9 1.7 0.00 0.00 0.00 80 1017.0
20260906022043 77 355 0.0 1.7 0.00 0.00 0.00 80 1017.0
20260906021540 77 355 0.0 0.9 0.00 0.00 0.00 80 1017.0
20260906021040 77 355 0.0 0.9 0.00 0.00 0.00 80 1017.0
20260906020540 77 355 0.0 1.7 0.00 0.00 0.00 80 1017.0
20260906020040 77 355 0.9 1.7 0.00 0.00 0.00 80 1017.0
20260906015540 77 355 0.0 0.9 0.00 0.00 0.00 79 1017.0
20260906015040 77 355 0.0 0.9 0.00 0.00 0.00 79 1017.0
20260906014539 78 355 0.0 1.7 0.00 0.00 0.00 79 1017.0
20260906014040 78 355 1.7 2.6 0.00 0.00 0.00 79 1017.0
20260906013540 77 351 1.7 2.6 0.00 0.00 0.00 79 1017.0
20260906013043 77 0 1.7 2.6 0.00 0.00 0.00 78 1017.1
20260906012540 77 5 0.9 0.9 0.00 0.00 0.00 78 1017.1
20260906012040 77 5 0.0 0.9 0.00 0.00 0.00 77 1017.1
20260906011540 77 5 0.0 2.6 0.00 0.00 0.00 77 1017.1
20260906011040 77 5 0.9 3.5 0.00 0.00 0.00 77 1017.1
20260906010540 77 0 0.9 2.6 0.00 0.00 0.00 77 1017.0
20260906010040 78 0 0.9 1.7 0.00 0.00 0.00 76 1017.0
20260906005540 78 0 2.6 2.6 0.00 0.00 0.00 76 1017.0
20260906005040 78 0 0.0 1.7 0.00 0.00 0.00 76 1017.0
20260906004540 78 0 0.0 2.6 0.00 0.00 0.00 76 1017.0
20260906004039 78 9 0.0 2.6 0.00 0.00 0.00 75 1017.1
20260906003543 78 5 0.0 2.6 0.00 0.00 0.00 75 1017.1
20260906003039 78 11 1.7 2.6 0.00 0.00 0.00 75 1017.1
20260906002539 78 9 0.9 2.6 0.00 0.00 0.00 75 1017.1
20260906002040 78 9 0.9 3.5 0.00 0.00 0.00 75 1017.2
20260906001540 78 340 0.0 1.7 0.00 0.00 0.00 75 1017.3
20260906001040 78 340 0.0 0.9 0.00 0.00 0.00 75 1017.4
20260906000540 78 340 0.0 0.9 0.00 0.00 0.00 75 1017.4
20260906000040 78 340 0.0 1.7 0.00 0.00 0.00 75 1017.4
20260905235540 78 340 0.0 1.7 0.00 0.00 0.00 76 1017.4
20260905235043 78 340 0.0 1.7 0.00 0.00 0.00 75 1017.4
20260905234540 78 340 0.0 0.9 0.00 0.00 0.00 75 1017.3
20260905234040 78 340 0.9 0.9 0.00 0.00 0.00 74 1017.4
20260905233539 78 340 0.0 0.9 0.00 0.00 0.00 73 1017.3
20260905233040 78 340 0.0 0.0 0.00 0.00 0.00 72 1017.4
20260905232540 78 340 0.0 0.0 0.00 0.00 0.00 72 1017.4
20260905232039 78 340 0.0 0.0 0.00 0.00 0.00 72 1017.5
20260905231540 78 340 0.0 0.9 0.00 0.00 0.00 72 1017.4
20260905231040 78 340 0.0 0.9 0.00 0.00 0.00 72 1017.5
20260905230540 78 340 0.0 0.9 0.00 0.00 0.00 72 1017.4
20260905230040 78 340 0.0 0.0 0.00 0.00 0.00 71 1017.4
20260905225540 78 340 0.0 0.0 0.00 0.00 0.00 71 1017.4
20260905225040 78 340 0.0 1.7 0.00 0.00 0.00 71 1017.4
20260905224540 78 340 0.0 0.9 0.00 0.00 0.00 71 1017.5
20260905224040 78 340 0.0 1.7 0.00 0.00 0.00 71 1017.5
20260905223539 78 340 0.9 1.7 0.00 0.00 0.00 70 1017.5
20260905223040 78 340 0.0 1.7 0.00 0.00 0.00 70 1017.6
20260905222539 78 340 0.0 0.9 0.00 0.00 0.00 71 1017.6
20260905222040 79 340 0.0 0.9 0.00 0.00 0.00 71 1017.5
20260905221539 78 340 0.0 0.9 0.00 0.00 0.00 71 1017.5
20260905221040 78 340 0.0 0.9 0.00 0.00 0.00 71 1017.6
20260905220540 78 340 0.0 0.9 0.00 0.00 0.00 71 1017.5
20260905220039 78 340 0.0 1.7 0.00 0.00 0.00 72 1017.4
20260905215543 78 340 0.0 0.9 0.00 0.00 0.00 73 1017.4
20260905215039 78 340 0.0 2.6 0.00 0.00 0.00 73 1017.4
20260905214540 78 339 0.0 1.7 0.00 0.00 0.00 73 1017.4
20260905214039 78 338 0.0 1.7 0.00 0.00 0.00 73 1017.4
20260905213539 79 338 0.9 1.7 0.00 0.00 0.00 74 1017.4
20260905213039 79 338 1.7 2.6 0.00 0.00 0.00 74 1017.4
20260905212539 79 334 0.0 0.9 0.00 0.00 0.00 74 1017.4
20260905212039 79 334 0.0 1.7 0.00 0.00 0.00 74 1017.4
20260905211540 79 334 0.0 1.7 0.00 0.00 0.00 74 1017.4
20260905211040 79 334 0.0 2.6 0.00 0.00 0.00 74 1017.5
20260905210539 79 332 1.7 3.5 0.00 0.00 0.00 75 1017.4
20260905210043 79 324 1.7 1.7 0.00 0.00 0.00 75 1017.4
20260905205543 79 324 0.0 0.9 0.00 0.00 0.00 76 1017.5
20260905205040 79 324 0.9 0.9 0.00 0.00 0.00 76 1017.4
20260905204539 79 324 0.0 0.9 0.00 0.00 0.00 75 1017.4
20260905204040 79 324 0.0 0.9 0.00 0.00 0.00 75 1017.4
20260905203539 79 324 0.0 0.0 0.00 0.00 0.00 75 1017.3
20260905203042 79 324 0.0 0.9 0.00 0.00 0.00 75 1017.4
20260905202539 79 324 0.0 0.9 0.00 0.00 0.00 75 1017.5
20260905202039 79 324 0.9 1.7 0.00 0.00 0.00 75 1017.5
20260905201539 79 323 0.0 1.7 0.00 0.00 0.00 75 1017.4
20260905201039 79 323 0.9 0.9 0.00 0.00 0.00 76 1017.4
20260905200540 79 324 0.0 0.9 0.00 0.00 0.00 76 1017.4
20260905200040 79 324 0.9 1.7 0.00 0.00 0.00 76 1017.4
20260905195540 80 323 0.0 0.9 0.00 0.00 0.00 76 1017.5
20260905195039 80 323 0.0 1.7 0.00 0.00 0.00 76 1017.4
20260905194540 80 323 0.0 0.9 0.00 0.00 0.00 76 1017.3
20260905194039 80 323 0.0 0.9 0.00 0.00 0.00 76 1017.4
20260905193540 80 324 0.0 1.7 0.00 0.00 0.00 76 1017.4
20260905193043 80 323 0.0 0.9 0.00 0.00 0.00 76 1017.4
20260905192539 80 323 0.0 0.9 0.00 0.00 0.00 75 1017.3
20260905192040 80 323 0.0 1.7 0.00 0.00 0.00 75 1017.3
20260905191539 80 322 1.7 1.7 0.00 0.00 0.00 74 1017.3
20260905191039 80 322 1.7 3.5 0.00 0.00 0.00 73 1017.3
20260905190542 80 311 0.0 0.0 0.00 0.00 0.00 73 1017.1
20260905190039 80 311 0.0 0.9 0.00 0.00 0.00 72 1017.0
20260905185539 80 317 0.0 1.7 0.00 0.00 0.00 72 1017.0
20260905185040 80 313 0.9 2.6 0.00 0.00 0.00 72 1017.0
20260905184540 81 305 0.9 3.5 0.00 0.00 0.00 73 1016.9
20260905184040 81 300 0.9 2.6 0.00 0.00 0.00 74 1016.9
20260905183540 81 267 0.0 0.0 0.00 0.00 0.00 74 1016.9
20260905183040 81 267 0.0 0.9 0.00 0.00 0.00 74 1016.9
20260905182543 81 267 0.0 1.7 0.00 0.00 0.00 74 1016.9
20260905182039 81 276 0.0 0.9 0.00 0.00 0.00 75 1016.8
20260905181543 81 281 0.0 0.0 0.00 0.00 0.00 75 1016.8
20260905181039 81 281 0.0 0.9 0.00 0.00 0.00 74 1016.7
20260905180540 81 279 0.0 0.9 0.00 0.00 0.00 74 1016.6
20260905180039 81 266 0.0 0.9 0.00 0.00 0.00 75 1016.6
20260905175540 81 262 0.0 1.7 0.00 0.00 0.00 75 1016.5
20260905175040 81 269 0.0 0.9 0.00 0.00 0.00 76 1016.5
20260905174542 82 275 0.0 0.9 0.00 0.00 0.00 75 1016.5
20260905174040 82 275 0.0 0.9 0.00 0.00 0.00 75 1016.5
20260905173539 82 275 0.0 0.9 0.00 0.00 0.00 74 1016.4
20260905173040 82 285 0.0 0.9 0.00 0.00 0.00 73 1016.4
20260905172540 82 209 0.0 1.7 0.00 0.00 0.00 72 1016.4
20260905172039 82 229 0.0 2.6 0.00 0.00 0.00 71 1016.4
20260905171540 83 34 0.0 1.7 0.00 0.00 0.00 70 1016.3
20260905171040 83 331 0.0 1.7 0.00 0.00 0.00 70 1016.4
20260905170539 83 0 0.9 2.6 0.00 0.00 0.00 69 1016.4
20260905170039 83 327 0.9 0.9 0.00 0.00 0.00 68 1016.4
20260905165539 84 273 0.0 0.9 0.00 0.00 0.00 67 1016.4
20260905165039 84 252 0.0 1.7 0.00 0.00 0.00 66 1016.3
20260905164539 84 181 0.0 1.7 0.00 0.00 0.00 65 1016.3
20260905164039 84 19 0.0 1.7 0.00 0.00 0.00 63 1016.3
20260905163542 85 339 0.0 1.7 0.00 0.00 0.00 63 1016.2
20260905163040 85 59 0.0 1.7 0.00 0.00 0.00 62 1016.2
20260905162540 85 192 0.0 5.2 0.00 0.00 0.00 61 1016.1
20260905162040 85 312 0.0 0.9 0.00 0.00 0.00 62 1016.1
20260905161540 86 88 0.0 2.6 0.00 0.00 0.00 61 1016.1
20260905161039 86 181 0.0 1.7 0.00 0.00 0.00 60 1016.2
20260905160539 86 257 0.0 5.2 0.00 0.00 0.00 61 1016.1
20260905160039 86 315 0.9 2.6 0.00 0.00 0.00 60 1016.2
20260905155539 86 42 0.0 2.6 0.00 0.00 0.00 58 1016.3
20260905155039 86 204 0.0 1.7 0.00 0.00 0.00 59 1016.3
20260905154539 87 24 0.9 2.6 0.00 0.00 0.00 59 1016.4
20260905154043 87 254 0.0 2.6 0.00 0.00 0.00 59 1016.3
20260905153543 87 282 0.9 1.7 0.00 0.00 0.00 58 1016.3
20260905153039 87 35 0.0 3.5 0.00 0.00 0.00 57 1016.2
20260905152540 87 32 0.0 3.5 0.00 0.00 0.00 56 1016.3
20260905152039 87 337 0.0 2.6 0.00 0.00 0.00 55 1016.3
20260905151539 87 315 0.0 5.2 0.00 0.00 0.00 56 1016.4
20260905151039 87 243 0.0 4.3 0.00 0.00 0.00 58 1016.4
20260905150539 87 227 0.0 2.6 0.00 0.00 0.00 59 1016.4
20260905150039 87 232 0.0 2.6 0.00 0.00 0.00 60 1016.3
20260905145540 87 211 0.9 1.7 0.00 0.00 0.00 59 1016.4
20260905145039 87 190 0.0 3.5 0.00 0.00 0.00 60 1016.4
20260905144539 86 274 0.9 3.5 0.00 0.00 0.00 60 1016.4
20260905144040 86 122 0.0 3.5 0.00 0.00 0.00 61 1016.4
20260905143539 87 306 1.7 4.3 0.00 0.00 0.00 61 1016.5
20260905143040 87 230 0.9 3.5 0.00 0.00 0.00 63 1016.5
20260905142540 87 206 2.6 5.2 0.00 0.00 0.00 63 1016.5
20260905142040 86 348 0.0 6.1 0.00 0.00 0.00 62 1016.6
20260905141540 87 333 2.6 7.0 0.00 0.00 0.00 60 1016.6
20260905141039 87 101 0.0 7.8 0.00 0.00 0.00 61 1016.6
20260905140540 87 242 0.9 6.1 0.00 0.00 0.00 60 1016.7
20260905140043 87 245 0.9 7.8 0.00 0.00 0.00 60 1016.7
20260905135539 87 344 0.0 3.5 0.00 0.00 0.00 59 1016.8
20260905135043 87 237 1.7 6.1 0.00 0.00 0.00 59 1016.7
20260905134540 87 29 0.0 5.2 0.00 0.00 0.00 61 1016.8
20260905134039 87 69 1.7 5.2 0.00 0.00 0.00 60 1016.8
20260905133543 87 30 0.9 3.5 0.00 0.00 0.00 59 1016.8
20260905133039 87 172 0.0 8.7 0.00 0.00 0.00 59 1016.9
20260905132539 87 329 0.9 6.1 0.00 0.00 0.00 61 1016.9
20260905132039 88 170 0.9 4.3 0.00 0.00 0.00 61 1016.9
20260905131539 88 202 1.7 2.6 0.00 0.00 0.00 61 1016.9
20260905131042 88 140 0.0 3.5 0.00 0.00 0.00 60 1016.9
20260905130539 88 349 0.0 6.1 0.00 0.00 0.00 57 1016.9
20260905130039 89 207 0.9 6.1 0.00 0.00 0.00 55 1017.0
20260905125539 89 308 0.9 5.2 0.00 0.00 0.00 54 1017.0
20260905125039 89 213 1.7 7.0 0.00 0.00 0.00 55 1016.9
20260905124539 89 330 0.9 3.5 0.00 0.00 0.00 53 1016.9
20260905124039 89 67 1.7 3.5 0.00 0.00 0.00 46 1017.0
20260905123539 89 199 0.0 5.2 0.00 0.00 0.00 49 1017.0
20260905123039 89 22 0.0 6.1 0.00 0.00 0.00 48 1017.0
20260905122539 89 329 0.0 4.3 0.00 0.00 0.00 49 1017.0
20260905122040 88 187 0.0 3.5 0.00 0.00 0.00 51 1017.0
20260905121542 88 146 0.9 3.5 0.00 0.00 0.00 55 1017.0
20260905121039 88 263 0.9 7.0 0.00 0.00 0.00 57 1017.0
20260905120539 88 217 0.9 4.3 0.00 0.00 0.00 58 1017.0
20260905120040 88 68 0.0 1.7 0.00 0.00 0.00 58 1017.1
20260905115540 89 173 0.9 3.5 0.00 0.00 0.00 56 1017.1
20260905115039 89 207 0.9 5.2 0.00 0.00 0.00 54 1017.1
20260905114540 89 217 0.9 2.6 0.00 0.00 0.00 53 1017.1
20260905114039 89 183 0.0 5.2 0.00 0.00 0.00 53 1017.0
20260905113539 88 207 2.6 3.5 0.00 0.00 0.00 53 1017.0
20260905113042 88 175 0.0 2.6 0.00 0.00 0.00 53 1017.0
20260905112539 88 261 0.9 2.6 0.00 0.00 0.00 53 1016.9
20260905112040 88 333 0.9 4.3 0.00 0.00 0.00 54 1017.0
20260905111539 88 65 0.0 4.3 0.00 0.00 0.00 53 1017.1
20260905111039 88 178 0.0 3.5 0.00 0.00 0.00 51 1017.0
20260905110539 89 197 3.5 3.5 0.00 0.00 0.00 52 1017.1
20260905110039 89 208 0.0 5.2 0.00 0.00 0.00 51 1017.1
20260905105540 89 88 0.9 1.7 0.00 0.00 0.00 51 1017.1
20260905105039 89 225 0.0 1.7 0.00 0.00 0.00 48 1017.2
20260905104539 88 139 0.0 1.7 0.00 0.00 0.00 46 1017.2
20260905104039 88 103 0.9 2.6 0.00 0.00 0.00 46 1017.2
20260905103539 89 33 0.9 2.6 0.00 0.00 0.00 47 1017.2
20260905103042 89 282 0.0 4.3 0.00 0.00 0.00 46 1017.1
20260905102539 89 244 0.0 7.0 0.00 0.00 0.00 45 1017.2
20260905102039 89 194 1.7 4.3 0.00 0.00 0.00 44 1017.2
20260905101539 89 176 1.7 2.6 0.00 0.00 0.00 43 1017.2
20260905101039 89 309 0.9 2.6 0.00 0.00 0.00 44 1017.2
20260905100539 88 216 0.0 3.5 0.00 0.00 0.00 44 1017.3
20260905100039 88 234 0.0 7.0 0.00 0.00 0.00 43 1017.3
20260905095542 90 217 0.0 4.3 0.00 0.00 0.00 41 1017.3
20260905095039 90 260 0.0 3.5 0.00 0.00 0.00 41 1017.3
20260905094539 90 232 0.9 3.5 0.00 0.00 0.00 42 1017.2
20260905094039 90 214 3.5 4.3 0.00 0.00 0.00 41 1017.2
20260905093539 90 227 0.0 8.7 0.00 0.00 0.00 41 1017.3
20260905093039 90 245 2.6 8.7 0.00 0.00 0.00 41 1017.2
20260905092539 90 200 0.9 7.0 0.00 0.00 0.00 39 1017.1
20260905092039 90 186 3.5 5.2 0.00 0.00 0.00 37 1017.1
20260905091539 90 185 0.9 5.2 0.00 0.00 0.00 36 1017.1
20260905091039 90 166 2.6 5.2 0.00 0.00 0.00 37 1017.1
20260905090539 90 170 4.3 3.5 0.00 0.00 0.00 38 1017.1
20260905090039 89 218 0.0 4.3 0.00 0.00 0.00 37 1017.0
20260905085542 90 175 0.9 2.6 0.00 0.00 0.00 38 1017.0
20260905085039 89 225 0.0 0.9 0.00 0.00 0.00 39 1017.1
20260905084542 89 227 0.0 2.6 0.00 0.00 0.00 39 1017.1
20260905084039 89 312 1.7 1.7 0.00 0.00 0.00 38 1017.2
20260905083539 89 229 0.0 1.7 0.00 0.00 0.00 39 1017.1
20260905083039 89 214 0.0 0.9 0.00 0.00 0.00 39 1017.1
20260905082539 89 211 0.0 2.6 0.00 0.00 0.00 38 1017.1
20260905082039 89 266 0.0 0.9 0.00 0.00 0.00 38 1017.0
20260905081539 89 266 0.0 2.6 0.00 0.00 0.00 39 1016.9
20260905081039 88 280 0.0 0.9 0.00 0.00 0.00 40 1016.8
20260905080539 87 280 0.0 0.9 0.00 0.00 0.00 41 1016.8